Location: Boki Hamet
(15.2591°N, 12.7975°W)
Time: 09:05:35
(UTC+00:00)

Daily predictions for brighter satellites

Satellite Brightness Start Highest point End
(mag) Time Altitude Azimuth Time Altitude Azimuth Time Altitude Azimuth
ATLAS 3B R/B 3.0 19:14:39 10° NNW 19:21:30 81° WSW 19:28:39 10° SSE
Meteor 1-27 Rocket 3.7 19:17:16 10° N 19:22:58 81° E 19:28:33 10° S
FengYun 1-2 T 4.3 19:18:31 10° SSE 19:23:55 64° ENE 19:29:23 10° N
Palapa B4 Rocket 3.7 19:21:25 10° WNW 19:25:14 49° N 19:30:26 10° E
Cosmos 1869 Rocket 3.5 19:23:20 10° S 19:27:38 75° E 19:31:56 10° N
Cosmos 2263 4.3 19:22:25 10° NNW 19:28:02 87° WSW 19:33:41 10° SSE
CZ-4 R/B 1.4 19:27:17 10° S 19:31:16 84° W 19:35:09 10° NNW
YAOGAN 6 2.5 19:28:34 10° SSE 19:32:00 64° ENE 19:35:27 10° N
CSL-04 Rocket 3.6 19:27:41 10° SSE 19:32:55 71° ENE 19:38:14 10° N
CZ-2D R/B 4.2 19:31:32 10° SE 19:34:49 27° ENE 19:38:05 10° NNE
Cosmos 2266 Rocket 3.9 19:33:27 10° N 19:39:25 66° E 19:45:25 10° SSE
FALCON 9 R/B 0.5 19:35:56 10° WSW 19:39:27 56° NNW 19:41:13 10° NE
SAR-Lupe-2 3.5 19:37:17 10° NNE 19:40:52 84° ESE 19:44:26 10° S
Cosmos 220 Rocket 4.1 19:36:40 10° NNW 19:40:52 76° WSW 19:45:01 10° S
Cosmos 1315 Rocket 2.8 19:38:22 10° N 19:42:29 80° E 19:46:34 10° S
Unknown 4.1 19:42:47 10° NW 19:46:08 46° SW 19:49:29 10° SSE
Cosmos 1943 Rocket 4.2 19:41:20 10° NW 19:46:11 31° WSW 19:51:05 10° SSW
Envisat 4.0 19:44:33 10° S 19:49:27 50° W 19:54:21 10° NNW
Cosmos 1656 Rocket 3.6 19:44:20 10° NNW 19:49:53 78° ENE 19:55:19 10° SSE
Okean 1-7 3.1 19:47:08 10° N 19:51:25 57° E 19:55:40 10° SSE
SEDSat Delta rocket 3.7 19:54:15 10° WSW 19:58:31 55° NNW 20:03:21 10° NE
Cosmos 1602 3.7 19:54:58 10° S 19:58:46 81° W 20:02:35 10° N
Cosmos 773 Rocket 4.0 19:54:17 10° N 19:59:19 58° ENE 20:04:21 10° SSE
ADEOS Rocket 4.1 19:53:55 10° NE 19:59:42 29° ESE 20:05:53 10° SSE
COSMOS 2406 3.8 19:54:37 10° SSW 20:00:12 63° WNW 20:05:49 10° N
CZ-3C R/B 3.7 19:57:01 10° SW 20:01:01 23° S 20:10:20 10° SE
Unknown 3.4 20:00:41 10° NNW 20:04:26 60° NE 20:06:29 25° SE
Cosmos 1553 Rocket 3.9 20:07:08 10° S 20:13:17 68° E 20:19:31 10° N
HJ-1C 3.2 20:11:28 23° SSE 20:13:20 64° ENE 20:16:37 10° N
Unknown 4.3 20:13:33 10° NNW 20:17:21 35° NE 20:18:04 32° ENE
Unknown 4.3 20:15:12 10° NNW 20:19:01 36° NE 20:19:40 34° ENE
Unknown 4.2 20:16:48 10° NNW 20:20:40 38° NE 20:21:16 36° ENE
Unknown 3.3 20:17:16 10° NW 20:21:08 86° NE 20:22:25 41° SE
Unknown 4.1 20:18:27 10° NNW 20:22:20 40° NE 20:22:52 38° ENE
Okean 1 3.1 20:21:10 10° N 20:25:07 69° E 20:26:37 36° SSE
Unknown 4.0 20:21:43 10° NNW 20:25:41 45° NE 20:26:06 43° ENE
Cosmos 1417 Rocket 4.4 20:19:40 10° S 20:25:50 88° E 20:31:58 10° N
Unknown 3.9 20:23:21 10° NNW 20:27:21 48° NE 20:27:44 46° ENE
SJ 16-02 1.2 20:23:21 10° S 20:27:44 84° ESE 20:32:08 10° NNE
Unknown 3.8 20:25:01 10° NNW 20:29:01 49° NE 20:29:18 48° ENE
Cosmos 1244 Rocket 4.3 20:23:49 10° N 20:29:55 68° E 20:35:07 15° SSE
Cosmos 1898 Rocket 4.1 20:24:46 10° SSW 20:29:58 58° WNW 20:35:07 10° N
Unknown 3.8 20:26:36 10° NNW 20:30:36 50° NE 20:30:47 49° ENE
Meteor 2-19 Rocket 4.4 20:24:53 10° N 20:30:54 63° E 20:34:58 21° SSE
Ariane Rocket 3.6 20:26:31 10° S 20:31:27 55° WSW 20:36:23 10° NNW
Unknown 3.7 20:28:16 10° NNW 20:32:18 55° NE 20:32:28 54° ENE
SJ-11-01 4.3 20:32:52 48° ESE 20:33:40 55° ENE 20:38:15 10° N
Unknown 3.8 20:29:48 10° NNW 20:33:47 50° NE 20:33:47 50° NE
SJ-6B 3.9 20:35:51 31° NNE 20:35:51 31° NNE 20:38:20 10° N
Unknown 3.8 20:33:02 10° NNW 20:36:56 55° NE 20:36:56 55° NE
Unknown 3.7 20:34:40 10° NNW 20:38:31 58° NE 20:38:31 58° NE
Unknown 3.5 20:36:31 10° NNW 20:40:30 71° NE 20:40:30 71° NE
Orbus 7S 4.2 20:37:56 10° NW 20:40:34 30° NNW 20:40:34 30° NNW
S3M 4.0 20:34:49 10° S 20:41:10 88° W 20:47:26 10° N
Cosmos 44 3.4 20:37:38 10° NNW 20:41:52 59° WSW 20:43:05 41° S
Cosmos 1833 Rocket 3.0 20:36:24 10° SSW 20:41:59 66° WNW 20:47:34 10° N
Unknown 3.7 20:38:01 10° NNW 20:41:47 62° NNE 20:41:47 62° NNE
Unknown 3.7 20:39:40 10° NNW 20:43:24 64° NNE 20:43:24 64° NNE
Cosmos 2221 Rocket 4.0 20:42:12 10° NNW 20:46:33 62° W 20:48:38 30° SSW
Hubble Space Telescope 1.4 20:43:02 10° WNW 20:46:51 48° SW 20:46:51 48° SW
Unknown 3.8 20:42:55 10° NNW 20:46:32 64° N 20:46:32 64° N
Cosmos 923 Rocket 4.1 20:42:39 10° N 20:47:26 53° ENE 20:47:26 53° ENE
Meteor 2-4 Rocket 4.3 20:42:45 10° N 20:46:37 38° NE 20:46:37 38° NE
Delta 142 4.4 20:43:26 10° SW 20:47:08 39° SSW 20:47:08 39° SSW
Unknown 3.8 20:44:38 10° NNW 20:48:11 64° NNW 20:48:11 64° NNW
Unknown 3.9 20:46:17 10° NW 20:49:46 62° NNW 20:49:46 62° NNW
Unknown 4.0 20:47:55 10° NW 20:51:21 61° NNW 20:51:21 61° NNW
Cosmos 2082 Rocket 2.2 20:47:34 10° SSW 20:53:09 80° WNW 20:58:48 10° NNE
Unknown 4.0 20:49:36 10° NW 20:52:59 59° NW 20:52:59 59° NW
H-2A R/B 3.2 20:57:02 29° NNE 20:57:02 29° NNE 20:59:43 10° N
Unknown 4.2 20:53:13 10° NW 20:56:40 54° W 20:56:40 54° W
Cosmos 1680 Rocket 4.4 20:52:18 10° N 20:55:39 35° NNE 20:55:39 35° NNE
Unknown 4.4 20:54:51 10° NW 20:58:11 51° WNW 20:58:11 51° WNW
NATO 3D Rocket 4.2 20:51:29 10° WSW 20:59:30 54° SSE 20:59:38 54° SSE
Unknown 4.4 20:56:11 10° NW 20:59:22 49° WNW 20:59:22 49° WNW
GPS 2-12 Rocket1 3.6 20:55:39 10° W 21:00:13 54° NNW 21:00:13 54° NNW
Cosmos 1745 Rocket 4.0 21:05:51 10° N 21:11:02 63° NNE 21:11:02 63° NNE
ARGOS 4.2 21:18:07 37° N 21:18:07 37° N 21:21:17 10° N
Palapa B4 Rocket 4.4 21:26:11 10° WNW 21:29:45 52° WNW 21:29:45 52° WNW
CZ-3B R/B 4.3 22:09:17 10° WNW 22:22:19 47° NW 22:22:19 47° NW
